www.pogodaiklimat.ru

Погода и климат >> Архив погоды >> Таиланд >> Патхумтхани


ПОГОДА в Патхумтхани

  • Прогноз погоды в Патхумтхани
  • Монитор погоды в Патхумтхани

АРХИВ ПОГОДЫ в Патхумтхани

Время (UTC), дата Ветер
(напр.,м/с)
 
Видим.   Явления Облачность Т
(С)
Тd
(С)
f
(%)
Тe
(С)
Тes
(С)
Комфортность P
(гПа)
Po
(гПа)
Тmin
(С)
Tmax
(С)
R
(мм)
R24
(мм)
S
(см)
18 14.09 Ю 2 7000 м дымка {дождь} 10/5 600 м
[Sc As op Ci]
+26.0 +24.6 92 +37 +37 очень
душно
1008.7 1007.9 0.5
21 14.09 Ю 2 7000 м дымка 10/4 600 м
[Sc As op Ci]
+25.5 +24.0 91 +35 +35 очень
душно
1008.3 1007.5
00 15.09 штиль 0 9000 м дымка 4/0
[Ac lent Cs]
+25.7 +25.1 96 +37 +38 очень
душно
1007.5 1006.7 +25.1
03 15.09 В 2 12 км 3/3 600 м
[Cu med, cong Ac lent Cs]
+32.2 +25.4 67 +46 +56 опасность
перегрева
1008.5 1007.7
06 15.09 В 3 12 км 4/3 600 м
[Cu med, cong Cs]
+35.4 +25.0 55 +49 +60 опасность
перегрева
1005.9 1005.1
09 15.09 СВ 3 12 км 8/3 600 м
[Cu med, cong Ac und Cs]
+34.7 +25.9 60 +50 +52 опасность
перегрева
1003.9 1003.1
12 15.09 ЮЗ 4 9000 м дымка 8/4 600 м
[Cu med, cong Ac und Cs]
+31.8 +25.6 70 +47 +47 опасность
перегрева
1005.1 1004.3 +36.9
15 15.09 СЗ 4 5000 м гроза, ливневой дождь 10/6 600 м
[Cb cap Ac As]
+25.5 +24.0 91 +35 +35 очень
душно
1008.8 1008.0 25
18 15.09 штиль 0 8000 м дымка {гроза} 10/3 600 м
[Sc Ac und Cs]
+25.6 +24.7 95 +36 +36 очень
душно
1007.6 1006.8 0.2
21 15.09 штиль 0 8000 м дымка 4/0
[Ac lent Cs]
+25.4 +24.8 96 +36 +36 очень
душно
1006.2 1005.4
00 16.09 СВ 1 8000 м дымка 3/1 1000 м
[Cu hum Cs]
+25.6 +23.7 89 +35 +36 очень
душно
1007.5 1006.7 +24.7
03 16.09 В 3 8000 м дымка 5/3 1000 м
[Cu med, cong Cs]
+31.1 +25.3 71 +45 +53 опасность
перегрева
1008.8 1008.0
06 16.09 ЮЗ 3 8000 м мгла 6/3 1000 м
[Cu med, cong Ac lent Cs]
+33.1 +24.4 60 +45 +55 опасность
перегрева
1005.9 1005.1
09 16.09 СЗ 5 500 м гроза, ливневой дождь 10/4 1000 м
[Cb cap Ac As]
+26.1 +25.4 96 +38 +39 очень
душно
1004.7 1003.9 1
12 16.09 штиль 0 8000 м дымка {гроза} 8/3 1000 м
[Sc Ac As Cs]
+26.7 +25.8 95 +40 +40 очень
душно
1005.1 1004.3 +35.3 13
15 16.09 С 2 8000 м дымка 9/4 1000 м
[Sc Ac As Cs]
+27.1 +26.5 97 +42 +42 опасность
перегрева
1007.5 1006.6
18 16.09 СВ 2 8000 м дымка 8/3 1000 м
[Sc Ac As Cs]
+26.5 +25.4 94 +39 +39 очень
душно
1007.5 1006.7
21 16.09 штиль 0 8000 м дымка 8/3 1000 м
[Sc Ac As Cs]
+26.0 +25.4 97 +38 +38 очень
душно
1006.6 1005.8
00 17.09 штиль 0 8000 м дымка 6/3 600 м
[Cu med, cong Ac trans Cs]
+26.0 +25.4 97 +38 +38 очень
душно
1007.8 1007.0 +25.4
03 17.09 штиль 0 9000 м дымка 4/3 600 м
[Cu med, cong Cs]
+31.8 +26.2 72 +48 +61 опасность
перегрева
1009.3 1008.5
06 17.09 ЮВ 3 12 км 4/3 600 м
[Cu med, cong Cs]
+34.7 +25.6 59 +49 +61 опасность
перегрева
1007.9 1007.1
09 17.09 СВ 4 12 км 8/4 600 м
[Cu med, cong Ac und Cs]
+33.7 +26.0 64 +49 +51 опасность
перегрева
1004.7 1003.9
12 17.09 ЮВ 3 9000 м дымка 9/4 600 м
[Cu med, cong Ac und Cs]
+29.6 +25.6 79 +44 +44 опасность
перегрева
1006.9 1006.1 +36.0
15 17.09 ЮВ 3 7000 м слаб. дождь 10/6 600 м
[Sc Ac As]
+26.5 +25.2 93 +38 +38 очень
душно
1009.1 1008.3 2
18 17.09 штиль 0 8000 м дымка {дождь} 8/3 600 м
[Sc Ac und Cs]
+25.2 +24.3 95 +35 +35 очень
душно
1008.5 1007.7 0.3
21 17.09 штиль 0 8000 м дымка 3/0
[Ac lent Cs]
+25.2 +24.8 98 +36 +36 очень
душно
1007.9 1007.1
00 18.09 штиль 0 9000 м дымка 3/0
[Cs]
+25.5 +24.8 96 +36 +37 очень
душно
1009.7 1008.9 +24.5
03 18.09 СЗ 2 9000 м дымка 3/0
[Cs]
+31.2 +24.5 68 +44 +57 опасность
перегрева
1010.6 1009.8
06 18.09 СЗ 2 9000 м дымка 6/3 600 м
[Cu med, cong Cs]
+34.0 +26.4 65 +51 +64 опасность
перегрева
1007.9 1007.1
09 18.09 С 5 9000 м мгла 8/4 600 м
[Cu Sc Ac lent Cs]
+35.0 +25.2 57 +49 +50 опасность
перегрева
1005.7 1004.9
12 18.09 В 2 8000 м дымка 10/5 600 м
[Cu Sc Ac As]
+32.0 +26.4 72 +48 +48 опасность
перегрева
1007.4 1006.6 +36.0
15 18.09 штиль 0 7000 м в посл. час гроза 10/6 600 м
[Cu Sc Ac As]
+25.5 +24.8 96 +36 +36 очень
душно
1010.4 1009.6 28
18 18.09 штиль 0 7000 м дымка {гроза} 10/5 600 м
[Cu Sc Ac As]
+25.5 +24.8 96 +36 +36 очень
душно
1010.1 1009.3 28
21 18.09 штиль 0 7000 м дымка 10/5 600 м
[Cu Sc Ac As]
+25.0 +24.3 96 +35 +35 очень
душно
1009.9 1009.1
00 19.09 СВ 1 8000 м дымка 10/4 1000 м
[Sc Ac As Cs]
+26.2 +25.3 95 +38 +38 очень
душно
1009.8 1009.0 +25.0
03 19.09 С 9 500 м слаб. дождь 10/6 1000 м
[Sc Ac As]
+27.0 +25.9 94 +40 +41 очень
душно
1011.7 1010.9 4
06 19.09 штиль 0 8000 м дымка {дождь} 10/5 1000 м
[Sc Ac As Cs]
+30.6 +25.7 75 +45 +52 опасность
перегрева
1009.1 1008.3 18
09 19.09 СВ 5 8000 м дымка 8/4 1000 м
[Sc Ac As Cs]
+30.5 +25.9 76 +45 +47 опасность
перегрева
1007.0 1006.2
12 19.09 штиль 0 8000 м дымка 8/3 1000 м
[Sc Ac lent Cs]
+28.5 +26.2 87 +43 +43 опасность
перегрева
1008.2 1007.4 +31.4
15 19.09 штиль 0 8000 м зарница 9/3 1000 м
[Cb cap Ac As Cs]
+27.2 +26.2 94 +41 +41 опасность
перегрева
1010.1 1009.3
18 19.09 Ю 2 3000 м слаб. дождь 10/6 1000 м
[Sc Ac As]
+26.0 +25.3 96 +38 +38 очень
душно
1009.9 1009.1 1
21 19.09 штиль 0 8000 м дымка {дождь} 10/5 1000 м
[Sc Ac As Cs]
+25.7 +25.4 98 +37 +37 очень
душно
1008.4 1007.6 0.3
00 20.09 штиль 0 5000 м дымка {дождь} 8/3 600 м
[Sc Ac und Cs]
+25.6 +25.2 98 +37 +37 очень
душно
1009.2 1008.4 +25.2 23
03 20.09 С 5 7000 м дымка 10/5 600 м
[Sc Ac und Cs]
+28.5 +26.1 87 +43 +45 опасность
перегрева
1010.6 1009.8
06 20.09 ЮЗ 3 8000 м дымка {гроза, дождь} 8/3 600 м
[Cb calv Ac und Cs]
+30.5 +25.6 75 +45 +52 опасность
перегрева
1008.2 1007.4 12
09 20.09 штиль 0 9000 м дымка {дождь} 6/3 600 м
[Cb calv Ac und Cs]
+30.8 +25.9 75 +46 +51 опасность
перегрева
1005.5 1004.7 4
12 20.09 ЮВ 3 8000 м дымка {дождь} 8/3 600 м
[Sc Ac und Cs]
+29.0 +25.9 83 +43 +43 опасность
перегрева
1006.7 1005.9 +31.5 15
15 20.09 В 3 8000 м дымка 10/4 600 м
[Sc Ac und Cs]
+27.3 +25.7 91 +40 +40 очень
душно
1009.5 1008.7
18 20.09 штиль 0 6000 м слаб. дождь {гроза} 10/6 600 м
[Sc Ac As]
+26.0 +25.3 96 +38 +38 очень
душно
1009.1 1008.3 2
21 20.09 штиль 0 7000 м дымка {дождь} 10/4 600 м
[Sc Ac und Cs]
+25.8 +25.2 96 +37 +37 очень
душно
1007.8 1007.0 0.4
00 21.09 штиль 0 8000 м дымка {дождь} 10/5 600 м
[Cu Sc Ac lent]
+26.0 +25.3 96 +38 +38 очень
душно
1009.2 1008.4 +25.0 18
03 21.09 В 4 9000 м дымка 10/4 600 м
[Cu Sc Ac lent Cs]
+29.0 +24.7 78 +41 +44 опасность
перегрева
1010.0 1009.2
06 21.09 штиль 0 7000 м слаб. дождь 10/6 600 м
[Cu Sc Ac As]
+27.0 +25.6 92 +40 +43 очень
душно
1008.4 1007.6 0.9
09 21.09 штиль 0 7000 м дымка {дождь} 10/5 600 м
[Cu Sc Ac As]
+26.5 +25.1 92 +38 +39 очень
душно
1006.6 1005.8 39
12 21.09 штиль 0 7000 м слаб. дождь 10/6 600 м
[Cu Sc Ac As]
+26.5 +25.5 94 +39 +39 очень
душно
1008.1 1007.3 +30.0 0.8

 

Местоположение метеостанции Патхумтхани (Таиланд): широта 14.10 долгота 100.62 высота над уровнем моря 7 м.

В архиве по умолчанию представлена погода в Патхумтхани за последнюю неделю. Архивные данные за месяц целиком и за предыдущие месяцы, начиная с января 2011 года, Вы можете получить, выбрав интересующий диапазон дат из раскрывающегося списка и нажав кнопку "Ввод!".


*Определитесь, кто Вы:
робот инопланетянин человек

Внимание! Время в таблицах - всемирное. Для получения местного времени необходимо прибавить поправку, которая равна 7 ч.

Смотрите также архив погоды в соседних городах и на ближайших метеорологических станциях:

Погода в Дон Муанг (Таиланд) (20 км)
Погода в Бангкоке (Таиланд) (42 км)
Погода в Бангкоке 2 (Таиланд) (45 км)
Погода в Бангна Агромете (Таиланд) (48 км)
Погода в Аюттхая (Таиланд) (48 км)
Погода в Аэропорту Суварнабхуми (Таиланд) (49 км)
Погода в Сарабури (Таиланд) (57 км)
Погода в Самутрудкан Агромете (Таиланд) (66 км)
Погода в Суфанбури (Таиланд) (67 км)
Погода в Накхонпатхоме (Таиланд) (71 км)

Пояснения к столбцам:

Ветер - указаны скорость ветра в м/с - средняя за 10 мин, порывы в срок и между сроками (в фигурных скобках) и направление, откуда дует ветер: С - северный, СВ - северо-восточный, В - восточный, ЮВ - юго-восточный, Ю - южный, ЮЗ - юго-западный, З - западный, СЗ - северо-западный.
Видимость - горизонтальная дальность видимости в метрах или километрах. При видимости от 1 до 10 км при отсутствии осадков обычно наблюдается дымка, при ухудшении видимости до 1 км и менее - туман. В сухую погоду видимость может ухудшаться дымом, пылью или мглою.
Явления - указаны атмосферные явления, наблюдавшиеся в срок или в последний час перед сроком; фигурными скобками обозначены явления, наблюдавшиеся между сроками (за 1-3 часа до срока); квадратными скобками обозначены град или гололедные отложения с указанием их диаметра в мм.
Облачность - указаны через наклонную черту общая и нижняя облачность в баллах и высота нижней границы облаков в метрах; квадратными скобками обозначены формы облаков: Ci - перистые, Cs - перисто-слоистые, Cc - перисто-кучевые, Ac - высококучевые, As - высокослоистые, Sc - слоисто-кучевые, Ns - слоисто-дождевые, Cu - кучевые, Cb - кучево-дождевые. Подробнее классификацию облаков см. в Атласе облаков (PDF).
T - Температура воздуха - температура, измеренная на высоте 2 м над землей.
Td - Температура точки росы - температура, при понижении до которой содержащийся в воздухе водяной пар достигнет насыщения.
f - Относительная влажность воздуха - влажноcть воздуха, измеренная на высоте 2 м над землей.
Te - Эффективная температура - температура, которую ощущает одетый по сезону человек в тени. Характеристика душности погоды. При расчете учитывается влияние влажности воздуха и скорости ветра на теплоощущения человека.
Tes - Эффективная температура на солнце - температура, которую ощущает человек, с поправкой на солнечный нагрев. Характеристика знойности погоды. Зависит от высоты солнца над горизонтом, облачности и скорости ветра. Ночью, в пасмурную погоду, а также при ветре 12 м/с и более поправка равна нулю.
P - Атмосферное давление - приведенное к уровню моря атмосферное давление.
Po - Атмосферное давление - измеренное на уровне метеостанции атмосферное давление.
Tmin - Минимальная температура - минимум температуры воздуха на высоте 2 м над землей.
Tmax - Максимальная температура - максимум температуры воздуха на высоте 2 м над землей.
R - Количество осадков - Количество выпавших осадков за период времени, мм. При наведении курсора мыши на число - период времени, за который выпало указанное количество осадков.
R24 - Количество осадков - Количество выпавших осадков за 24 часа, мм.
S - Снежный покров - Высота снежного покрова, см. При наведении курсора мыши на число - состояние снежного покрова и степень покрытия местности в баллах.